INMARSAT 5-F1

Last updated on Thu Nov 21 2024 00:02:42 GMT+0000 (Coordinated Universal Time)

1 39476U 13073A 24324.23521448 .00000029 00000+0 00000+0 0 9996 2 39476 0.0233 45.4121 0000723 191.1968 329.4402 1.00271995 39823
UTC large
Height (km)
Speed (km/s)
/
Latitude / Longitude
Inclination (degrees)
Orbital Period (minutes)
Azimuth
Elevation
Range (km)
Doppler Factor

Next 0 passes for location: London (51.5072 / 0.1276)

Sorry there are no passes over London.